TimeCST,TemperatureF,Dew PointF,Humidity,Sea Level PressureIn,VisibilityMPH,Wind Direction,Wind SpeedMPH,Gust SpeedMPH,PrecipitationIn,Events,Conditions,WindDirDegrees,DateUTC
12:54 AM,30.0,25.0,82,29.99,10.0,SSW,4.6,-,N/A,,Overcast,200,2012-12-28 06:54:00
1:54 AM,30.0,25.0,82,30.00,10.0,West,3.5,-,N/A,,Overcast,260,2012-12-28 07:54:00
2:54 AM,30.9,21.9,69,30.01,10.0,NNW,8.1,-,N/A,,Overcast,340,2012-12-28 08:54:00
3:54 AM,30.0,21.9,72,30.02,10.0,NW,4.6,-,N/A,,Overcast,320,2012-12-28 09:54:00
5:54 AM,28.9,21.9,75,30.01,10.0,NNW,13.8,-,N/A,,Overcast,340,2012-12-28 11:54:00
6:54 AM,28.9,19.9,69,30.02,10.0,North,11.5,-,N/A,,Overcast,350,2012-12-28 12:54:00
7:54 AM,28.9,19.9,69,30.03,10.0,North,10.4,-,N/A,,Overcast,350,2012-12-28 13:54:00
8:54 AM,28.9,19.9,69,30.06,9.0,NNW,13.8,-,N/A,,Overcast,330,2012-12-28 14:54:00
9:54 AM,28.9,21.0,72,30.08,9.0,NNW,11.5,-,N/A,,Overcast,330,2012-12-28 15:54:00
10:54 AM,30.0,19.9,66,30.10,10.0,NW,9.2,-,N/A,,Overcast,320,2012-12-28 16:54:00
11:54 AM,30.0,19.0,64,30.08,10.0,NW,12.7,-,N/A,,Overcast,320,2012-12-28 17:54:00
12:54 PM,32.0,17.1,54,30.06,10.0,NNW,11.5,-,N/A,,Mostly Cloudy,340,2012-12-28 18:54:00
1:54 PM,33.1,15.1,48,30.04,10.0,NW,11.5,-,N/A,,Partly Cloudy,310,2012-12-28 19:54:00
2:54 PM,33.1,14.0,46,30.04,10.0,NW,13.8,-,N/A,,Clear,310,2012-12-28 20:54:00
3:54 PM,32.0,12.0,44,30.06,10.0,NW,15.0,-,N/A,,Clear,310,2012-12-28 21:54:00
4:54 PM,28.9,10.0,45,30.08,10.0,NNW,15.0,-,N/A,,Clear,330,2012-12-28 22:54:00
5:54 PM,25.0,10.0,53,30.11,10.0,NW,11.5,-,N/A,,Clear,320,2012-12-28 23:54:00
7:54 PM,19.0,9.0,65,30.16,10.0,NW,8.1,-,N/A,,Clear,310,2012-12-29 01:54:00
8:54 PM,19.0,10.0,68,30.17,10.0,WNW,6.9,-,N/A,,Clear,290,2012-12-29 02:54:00
9:54 PM,18.0,10.0,71,30.19,10.0,WNW,8.1,-,N/A,,Clear,300,2012-12-29 03:54:00
10:54 PM,16.0,9.0,74,30.21,10.0,WNW,4.6,-,N/A,,Clear,300,2012-12-29 04:54:00
11:54 PM,14.0,8.1,77,30.22,10.0,NW,6.9,-,N/A,,Clear,320,2012-12-29 05:54:00